| time (UTC) | temp F | wind direction | speed knots | gust knots | rain 1hr in | rain 24hr in | rain mn in | humidity % | barometer mb |
| 20260904034510 | 50 | 172 | 0.0 | 0.0 | 0.00 | 0.01 | 0.01 | 73 | 1012.0 |
| 20260904033008 | 51 | 172 | 0.0 | 0.0 | 0.00 | 0.01 | 0.01 | 70 | 1012.0 |
| 20260904031508 | 52 | 172 | 0.0 | 0.0 | 0.00 | 0.01 | 0.01 | 69 | 1012.0 |
| 20260904030008 | 52 | 172 | 0.0 | 0.0 | 0.00 | 0.01 | 0.01 | 67 | 1011.9 |
| 20260904024508 | 53 | 172 | 0.0 | 0.0 | 0.00 | 0.01 | 0.01 | 64 | 1011.8 |
| 20260904023006 | 54 | 172 | 0.0 | 0.0 | 0.00 | 0.01 | 0.01 | 64 | 1011.6 |
| 20260904021506 | 55 | 172 | 0.0 | 0.0 | 0.00 | 0.01 | 0.01 | 62 | 1011.4 |
| 20260904020006 | 56 | 172 | 0.0 | 0.0 | 0.00 | 0.01 | 0.01 | 61 | 1011.1 |
| 20260904014506 | 57 | 98 | 0.0 | 0.0 | 0.00 | 0.01 | 0.01 | 58 | 1011.0 |
| 20260904013009 | 59 | 98 | 0.0 | 0.0 | 0.00 | 0.01 | 0.01 | 54 | 1011.0 |
| 20260904011505 | 61 | 97 | 0.0 | 0.0 | 0.00 | 0.01 | 0.01 | 50 | 1011.1 |
| 20260904010004 | 62 | 98 | 0.0 | 0.9 | 0.00 | 0.02 | 0.01 | 45 | 1011.0 |
| 20260904004503 | 63 | 265 | 0.0 | 0.0 | 0.00 | 0.02 | 0.01 | 44 | 1011.1 |
| 20260904003002 | 66 | 265 | 0.0 | 0.9 | 0.00 | 0.02 | 0.01 | 40 | 1011.0 |
| 20260904001501 | 68 | 260 | 0.0 | 0.9 | 0.00 | 0.02 | 0.01 | 40 | 1011.1 |
| 20260904000108 | 68 | 283 | 0.0 | 4.3 | 0.00 | 0.02 | 0.01 | 36 | 1011.4 |
| 20260903234559 | 69 | 228 | 0.9 | 2.6 | 0.00 | 0.11 | 0.01 | 34 | 1011.5 |
| 20260903233102 | 70 | 269 | 0.0 | 2.6 | 0.00 | 0.11 | 0.01 | 32 | 1011.5 |
| 20260903231558 | 70 | 281 | 0.0 | 3.5 | 0.00 | 0.11 | 0.01 | 31 | 1011.5 |
| 20260903230059 | 71 | 280 | 0.0 | 2.6 | 0.00 | 0.11 | 0.01 | 36 | 1011.6 |
| 20260903224556 | 70 | 255 | 0.0 | 2.6 | 0.00 | 0.11 | 0.01 | 33 | 1011.8 |
| 20260903223057 | 70 | 46 | 0.0 | 4.3 | 0.00 | 0.11 | 0.01 | 33 | 1012.2 |
| 20260903221553 | 70 | 266 | 0.0 | 3.5 | 0.00 | 0.11 | 0.01 | 34 | 1012.2 |
| 20260903220052 | 69 | 128 | 0.9 | 7.8 | 0.00 | 0.11 | 0.01 | 32 | 1012.5 |
| 20260903214605 | 70 | 79 | 0.0 | 5.2 | 0.00 | 0.15 | 0.01 | 32 | 1012.6 |
| 20260903213050 | 70 | 226 | 0.0 | 7.8 | 0.00 | 0.15 | 0.01 | 34 | 1012.7 |
| 20260903211550 | 71 | 291 | 0.9 | 2.6 | 0.00 | 0.15 | 0.01 | 33 | 1012.7 |
| 20260903210046 | 70 | 237 | 0.9 | 5.2 | 0.00 | 0.15 | 0.01 | 31 | 1013.1 |
| 20260903204543 | 70 | 148 | 0.0 | 5.2 | 0.00 | 0.15 | 0.01 | 35 | 1013.1 |
| 20260903203040 | 69 | 274 | 0.0 | 4.3 | 0.00 | 0.15 | 0.01 | 34 | 1013.4 |
| 20260903201544 | 68 | 72 | 0.0 | 6.1 | 0.00 | 0.15 | 0.01 | 34 | 1013.5 |
| 20260903200038 | 68 | 63 | 0.9 | 5.2 | 0.00 | 0.15 | 0.01 | 36 | 1013.7 |
| 20260903194537 | 69 | 121 | 0.0 | 5.2 | 0.00 | 0.15 | 0.01 | 38 | 1013.6 |
| 20260903193034 | 69 | 106 | 0.0 | 4.3 | 0.00 | 0.15 | 0.01 | 33 | 1013.7 |
| 20260903191534 | 67 | 200 | 0.0 | 8.7 | 0.00 | 0.15 | 0.01 | 37 | 1013.9 |
| 20260903190031 | 68 | 221 | 0.0 | 7.8 | 0.00 | 0.15 | 0.01 | 39 | 1013.9 |
| 20260903184529 | 68 | 72 | 1.7 | 4.3 | 0.00 | 0.15 | 0.01 | 34 | 1014.1 |
| 20260903183027 | 67 | 141 | 0.0 | 2.6 | 0.00 | 0.15 | 0.01 | 41 | 1014.2 |
| 20260903181524 | 66 | 129 | 0.0 | 2.6 | 0.00 | 0.15 | 0.01 | 40 | 1014.4 |
| 20260903180031 | 65 | 156 | 0.9 | 3.5 | 0.00 | 0.15 | 0.01 | 40 | 1014.6 |
| 20260903174518 | 64 | 271 | 0.0 | 4.3 | 0.00 | 0.15 | 0.01 | 46 | 1014.8 |
| 20260903173015 | 63 | 247 | 0.0 | 6.1 | 0.00 | 0.15 | 0.01 | 45 | 1014.8 |
| 20260903171514 | 63 | 81 | 0.0 | 4.3 | 0.00 | 0.15 | 0.01 | 49 | 1014.8 |
| 20260903170011 | 62 | 125 | 0.0 | 4.3 | 0.00 | 0.15 | 0.01 | 50 | 1014.7 |
| 20260903164508 | 61 | 95 | 0.0 | 3.5 | 0.00 | 0.16 | 0.01 | 52 | 1014.9 |
| 20260903163005 | 61 | 84 | 0.0 | 3.5 | 0.00 | 0.16 | 0.01 | 53 | 1015.0 |
| 20260903161504 | 60 | 162 | 0.0 | 2.6 | 0.00 | 0.16 | 0.01 | 62 | 1015.2 |
| 20260903160059 | 58 | 141 | 0.9 | 4.3 | 0.00 | 0.16 | 0.01 | 59 | 1015.2 |
| 20260903154559 | 55 | 125 | 0.0 | 2.6 | 0.00 | 0.16 | 0.01 | 72 | 1015.2 |
| 20260903153105 | 52 | 125 | 0.0 | 2.6 | 0.00 | 0.16 | 0.01 | 87 | 1015.3 |
| 20260903151545 | 48 | 60 | 0.0 | 0.9 | 0.00 | 0.16 | 0.01 | 97 | 1015.5 |
| 20260903150051 | 46 | 259 | 0.0 | 0.0 | 0.00 | 0.16 | 0.01 | 97 | 1015.7 |
| 20260903144543 | 43 | 258 | 0.0 | 0.0 | 0.00 | 0.16 | 0.01 | 97 | 1015.7 |
| 20260903143053 | 42 | 259 | 0.0 | 0.0 | 0.00 | 0.16 | 0.01 | 97 | 1015.7 |
| 20260903141542 | 42 | 259 | 0.0 | 0.0 | 0.00 | 0.16 | 0.01 | 97 | 1015.6 |
| 20260903140037 | 42 | 259 | 0.0 | 0.0 | 0.00 | 0.16 | 0.01 | 97 | 1015.6 |
| 20260903134536 | 42 | 258 | 0.0 | 0.0 | 0.00 | 0.16 | 0.01 | 97 | 1015.5 |
| 20260903133035 | 42 | 258 | 0.0 | 0.0 | 0.00 | 0.16 | 0.01 | 97 | 1015.5 |
| 20260903131534 | 42 | 258 | 0.0 | 0.0 | 0.00 | 0.16 | 0.01 | 97 | 1015.4 |
| 20260903130032 | 42 | 259 | 0.0 | 0.0 | 0.00 | 0.16 | 0.01 | 97 | 1015.1 |
| 20260903124533 | 43 | 259 | 0.0 | 0.0 | 0.01 | 0.16 | 0.01 | 97 | 1014.9 |
| 20260903123030 | 43 | 259 | 0.0 | 0.0 | 0.01 | 0.16 | 0.01 | 97 | 1014.7 |
| 20260903121528 | 44 | 259 | 0.0 | 0.0 | 0.01 | 0.16 | 0.01 | 97 | 1014.6 |
| 20260903120033 | 44 | 259 | 0.0 | 0.0 | 0.01 | 0.16 | 0.01 | 97 | 1014.7 |
| 20260903114531 | 44 | 258 | 0.0 | 0.0 | 0.00 | 0.15 | 0.00 | 97 | 1014.6 |
| 20260903113030 | 44 | 259 | 0.0 | 0.0 | 0.00 | 0.15 | 0.00 | 97 | 1014.4 |
| 20260903111532 | 44 | 259 | 0.0 | 0.0 | 0.00 | 0.15 | 0.00 | 97 | 1014.4 |
| 20260903110025 | 45 | 259 | 0.0 | 0.0 | 0.00 | 0.15 | 0.00 | 97 | 1014.5 |
| 20260903104525 | 45 | 258 | 0.0 | 0.0 | 0.00 | 0.15 | 0.00 | 97 | 1014.6 |
| 20260903103023 | 45 | 259 | 0.0 | 0.0 | 0.00 | 0.15 | 0.00 | 97 | 1014.6 |
| 20260903101526 | 45 | 259 | 0.0 | 0.0 | 0.00 | 0.15 | 0.00 | 97 | 1014.8 |
| 20260903100022 | 45 | 258 | 0.0 | 0.0 | 0.00 | 0.15 | 0.00 | 97 | 1015.0 |
| 20260903094520 | 44 | 259 | 0.0 | 0.0 | 0.00 | 0.17 | 0.00 | 97 | 1014.9 |
| 20260903093024 | 44 | 259 | 0.0 | 0.0 | 0.00 | 0.17 | 0.00 | 97 | 1014.9 |
| 20260903091524 | 44 | 259 | 0.0 | 0.0 | 0.00 | 0.17 | 0.00 | 97 | 1014.9 |
| 20260903090023 | 43 | 259 | 0.0 | 0.0 | 0.00 | 0.17 | 0.00 | 97 | 1014.9 |
| 20260903084536 | 43 | 259 | 0.0 | 0.0 | 0.00 | 0.17 | 0.00 | 96 | 1014.8 |
| 20260903083013 | 43 | 258 | 0.0 | 0.0 | 0.00 | 0.17 | 0.00 | 97 | 1014.8 |
| 20260903081512 | 43 | 258 | 0.0 | 0.0 | 0.00 | 0.17 | 0.00 | 96 | 1015.0 |
| 20260903080011 | 43 | 259 | 0.0 | 0.0 | 0.00 | 0.17 | 0.00 | 96 | 1015.0 |
| 20260903074510 | 43 | 258 | 0.0 | 0.0 | 0.00 | 0.17 | 0.00 | 96 | 1015.1 |
| 20260903073008 | 43 | 259 | 0.0 | 0.0 | 0.00 | 0.17 | 0.00 | 96 | 1015.1 |
| 20260903071508 | 43 | 259 | 0.0 | 0.0 | 0.00 | 0.17 | 0.00 | 96 | 1015.2 |
| 20260903070016 | 43 | 259 | 0.0 | 0.0 | 0.00 | 0.17 | 0.00 | 96 | 1015.3 |
| 20260903064506 | 43 | 259 | 0.0 | 0.0 | 0.00 | 0.17 | 0.00 | 96 | 1015.1 |
| 20260903063005 | 44 | 259 | 0.0 | 0.0 | 0.00 | 0.17 | 0.00 | 96 | 1015.2 |
| 20260903061512 | 43 | 259 | 0.0 | 0.0 | 0.00 | 0.17 | 0.00 | 96 | 1015.0 |
| 20260903060002 | 43 | 259 | 0.0 | 0.0 | 0.00 | 0.17 | 0.17 | 96 | 1015.1 |
| 20260903054505 | 43 | 259 | 0.0 | 0.0 | 0.00 | 0.17 | 0.17 | 96 | 1015.1 |
| 20260903053102 | 43 | 258 | 0.0 | 0.0 | 0.00 | 0.17 | 0.17 | 96 | 1015.1 |
| 20260903051600 | 43 | 259 | 0.0 | 0.0 | 0.00 | 0.17 | 0.17 | 96 | 1015.2 |
| 20260903050100 | 43 | 259 | 0.0 | 0.0 | 0.00 | 0.17 | 0.17 | 95 | 1015.3 |
| 20260903044559 | 44 | 259 | 0.0 | 0.0 | 0.00 | 0.17 | 0.17 | 95 | 1015.4 |
| 20260903043058 | 44 | 259 | 0.0 | 0.0 | 0.00 | 0.17 | 0.17 | 95 | 1015.3 |
| 20260903041559 | 44 | 259 | 0.0 | 0.0 | 0.00 | 0.17 | 0.17 | 95 | 1015.2 |
| 20260903040059 | 45 | 259 | 0.0 | 0.0 | 0.00 | 0.17 | 0.17 | 95 | 1015.2 |